Regional Weather Roundup
Issued by NWS

Home | Current Version | Previous Version | Graphics & Text | Print | Product List | Glossary On
Versions: 1 2 3 4 5 6 7 8 9 10 11 12 13 14 15 16 17 18 19 20 21 22 23 24 25 26 27 28 29 30 31 32 33 34 35 36 37 38 39 40 41 42 43 44 45 46 47 48 49 50
000
ASUS43 KOAX 182310
RWRNE

WEATHER ROUNDUP FOR NEBRASKA
NATIONAL WEATHER SERVICE OMAHA NE
600 PM CDT THU SEP 18 2014

NOTES: SATELLITE DATA IS BEING USED TO AUGMENT CLOUD COVER ABOVE
       12000 FEET.
       "FAIR" INDICATES FEW OR NO CLOUDS BELOW 12,000 FEET WITH NO
       SIGNIFICANT WEATHER AND/OR OBSTRUCTIONS TO VISIBILITY.

  * THESE STATIONS DO NOT REPORT WEATHER SUCH AS RAIN...SNOW OR FOG.

NEZ001>004-019>022-054>056-190000-
NEBRASKA PANHANDLE

CITY           SKY/WX    TMP DP  RH WIND       PRES   REMARKS
SCOTTSBLUFF    MOSUNNY   91  51  25 E13       29.83F
ALLIANCE       MOSUNNY   84  62  47 SE20      29.86S
CHADRON        MOSUNNY   92  45  19 S14       29.76F
KIMBALL        SUNNY     88  36  15 S16       29.91S
SIDNEY         SUNNY     88  52  29 S20       29.91F
$$

NEZ057>060-069>072-079>082-190000-
SOUTHWEST NEBRASKA

CITY           SKY/WX    TMP DP  RH WIND       PRES   REMARKS
NORTH PLATTE   CLOUDY    68  61  78 S8        29.91F
IMPERIAL       SUNNY     75  62  64 SE13      29.91F
LEXINGTON      CLOUDY    68  66  93 SE9       29.92F FOG
MCCOOK         CLOUDY    70  62  76 SE8       29.92F
OGALLALA       SUNNY     73  63  72 SE12      29.91S
$$

NEZ005>010-023>029-035>040-094-190000-
NORTH CENTRAL NEBRASKA

CITY           SKY/WX    TMP DP  RH WIND       PRES   REMARKS
VALENTINE      MOSUNNY   81  63  54 S20G32    29.82F
AINSWORTH      SUNNY     78  62  57 S18       29.85F
BROKEN BOW     CLOUDY    71  63  75 S16G23    29.91F
O`NEILL        SUNNY     77  61  56 S15       29.88F
ORD            MOSUNNY   75  63  66 S16       29.89F
THEDFORD       SUNNY     75  63  65 S20       29.90S
$$

NEZ041-046>049-061>064-073>077-083>087-190000-
SOUTH CENTRAL NEBRASKA

CITY           SKY/WX    TMP DP  RH WIND       PRES   REMARKS
GRAND ISLAND   CLOUDY    72  65  78 S9        29.93F
AURORA         MOSUNNY   73  64  74 S8        29.92F
HASTINGS       MOSUNNY   73  63  70 SE8       29.92F
HEBRON         MOSUNNY   79  62  56 S7        29.92F
HOLDREGE       CLOUDY    71  65  80 CALM      29.91F
KEARNEY *      CLOUDY    70  64  83 SE7       29.92F
YORK           PTSUNNY   73  66  78 S9        29.93F
$$

NEZ011>018-030>034-042>045-190000-
NORTHEAST NEBRASKA

CITY           SKY/WX    TMP DP  RH WIND       PRES   REMARKS
NORFOLK        SUNNY     76  59  55 SE15      29.91F
ALBION         SUNNY     76  60  57 S13G18    29.91F
BLAIR          SUNNY     74  60  60 SE9       29.96S
COLUMBUS *     SUNNY     75  59  57 SE10      29.93F
FREMONT        SUNNY     76  56  48 SE14      29.94F
TEKAMAH        SUNNY     76  55  48 SE12      29.94F
WAYNE          SUNNY     74  60  61 SE9       29.93F
$$

NEZ050>053-065>068-078-088>093-190000-
SOUTHEAST NEBRASKA

CITY           SKY/WX    TMP DP  RH WIND       PRES   REMARKS
LINCOLN        MOSUNNY   78  61  55 SE10      29.94F
OMAHA EPPLEY   SUNNY     73  56  54 SE14      29.96S
BEATRICE       CLOUDY    75  63  67 SE9       29.94S
FALLS CITY     CLOUDY    66  60  81 SE7       29.98F
NEBRASKA CITY  SUNNY     70  53  53 SE9       29.98S
PLATTSMOUTH    SUNNY     72  54  53 E10       29.97S
$$

NEZ044-045-051>053-067-190000-
OMAHA AREA

CITY           SKY/WX    TMP DP  RH WIND       PRES   REMARKS
OMAHA EPPLEY   SUNNY     73  56  54 SE14      29.96S
BLAIR          SUNNY     74  60  60 SE9       29.96S
FREMONT        SUNNY     76  56  48 SE14      29.94F
MILLARD        SUNNY     74  60  63 SE10      29.95S
OFFUTT AFB     SUNNY     72  60  64 E9        29.96S
PLATTSMOUTH    SUNNY     72  54  53 E10       29.97S
WAHOO          FAIR      77  56  48 SE10G17   29.94F
$$


USA.gov is the U.S. government's official web portal to all federal, state and local government web resources and services.